Location: *
(53.6598°S, 170.0929°W)
Time: 01:01:59
(UTC+00:00)

Daily predictions for brighter satellites

Satellite Brightness Start Highest point End
(mag) Time Altitude Azimuth Time Altitude Azimuth Time Altitude Azimuth
STARLINK-1014 3.6 05:30:14 10° W 05:34:17 83° N 05:38:19 10° E
STARLINK-1060 3.9 05:31:29 10° WNW 05:35:39 62° NNE 05:39:50 10° E
Meteor 1-21 4.3 05:30:34 10° N 05:36:10 65° E 05:41:48 10° SSE
STARLINK-22 3.2 05:33:03 10° W 05:36:19 66° NNW 05:39:33 10° ENE
CZ-2C R/B 3.9 05:32:10 10° NE 05:36:31 48° ESE 05:40:53 10° S
YAOGAN 6 3.2 05:34:50 10° SSE 05:38:07 32° E 05:41:21 10° NNE
STARLINK-1031 3.8 05:34:59 10° WNW 05:39:11 66° NNE 05:43:25 10° E
STARLINK-1030 3.8 05:36:25 10° WNW 05:40:35 64° NNE 05:44:47 10° E
STARLINK-24 3.6 05:37:46 10° W 05:41:54 83° N 05:46:01 10° E
SL-24 R/B 4.4 05:39:07 10° NE 05:42:54 42° ESE 05:47:11 10° S
STARLINK-1026 3.7 05:39:02 10° W 05:43:16 84° N 05:47:30 10° E
Cosmos 1437 Rocket 4.1 05:40:42 10° NW 05:44:24 44° WSW 05:48:11 10° S
NOAA 12 4.4 05:39:39 10° SSE 05:44:53 48° E 05:50:04 10° N
STARLINK-1020 3.8 05:41:25 10° WNW 05:45:35 66° NNE 05:49:47 10° E
ATLAS 3B R/B 3.0 05:38:49 10° NW 05:46:16 89° SW 05:53:46 10° SE
Cosmos 1606 Rocket 4.3 05:43:40 10° S 05:47:40 32° ESE 05:51:38 10° NE
STARLINK 1040 3.2 05:45:03 10° W 05:47:48 50° NNW 05:50:31 10° ENE
STARLINK-1029 3.0 05:44:38 10° W 05:47:50 76° N 05:50:54 11° ENE
Cosmos 1190 Rocket 4.0 05:42:41 10° SSW 05:48:03 74° ESE 05:53:23 10° NNE
CORIOLIS 4.3 05:42:45 10° SSE 05:48:07 55° E 05:53:27 10° N
STARLINK-64 3.5 05:44:30 10° W 05:48:11 71° NNW 05:51:50 10° ENE
STARLINK-1013 3.7 05:44:00 10° W 05:48:14 84° N 05:52:20 11° E
MOS 1 Rocket 4.0 05:43:34 10° NE 05:48:21 38° ESE 05:52:55 10° S
Cosmos 2056 Rocket 4.3 05:45:13 10° NNE 05:49:39 29° E 05:54:10 10° SE
STARLINK-1052 3.8 05:46:20 10° WNW 05:50:33 68° NNE 05:54:34 11° E
Cosmos 1470 3.1 05:48:10 10° SSW 05:52:10 72° W 05:56:05 10° N
STARLINK-1063 4.5 05:48:35 10° NW 05:52:26 35° NNE 05:56:01 12° E
STARLINK-1009 3.7 05:48:59 10° W 05:53:13 83° N 05:57:07 12° E
Okean O Rocket 2.2 05:48:56 10° S 05:53:26 66° WSW 05:57:50 10° NNW
Cosmos 2098 Rocket 4.5 05:47:16 10° NNE 05:54:08 57° E 06:01:31 10° SSE
STARLINK-1064 4.4 05:53:30 10° NW 05:57:24 37° NNE 06:00:48 13° E
STARLINK-1015 3.7 05:53:58 10° W 05:58:12 83° N 06:01:54 13° E
DMSP B5D2-2 4.2 05:53:07 10° NE 05:58:20 58° ESE 06:03:37 10° S
Cosmos 1908 4.1 05:56:01 10° S 05:59:31 30° ESE 06:02:59 10° NE
STARLINK-1033 3.7 05:56:16 10° WNW 06:00:29 72° NNE 06:04:08 14° E
Cosmos 2228 3.5 05:56:31 10° S 06:00:38 38° ESE 06:04:40 10° NE
Meteor 1-16 Rocket 4.2 05:56:10 10° S 06:01:46 65° ESE 06:07:08 10° NNE
STARLINK-1041 4.3 05:58:23 10° NW 06:02:19 39° NNE 06:05:34 14° E
STARLINK-42 3.8 05:59:21 10° W 06:02:33 46° NNW 06:05:28 12° NE
Cosmos 1140 Rocket 3.5 05:57:49 10° SSW 06:03:11 83° ESE 06:08:29 10° NNE
STARLINK-1016 3.7 05:58:57 10° W 06:03:11 83° N 06:06:41 15° E
CZ-4B R/B 3.7 05:58:31 10° SSE 06:04:06 66° WSW 06:09:30 10° NNW
STARLINK-1038 4.2 06:03:18 10° NW 06:07:16 41° NNE 06:10:20 16° E
STARLINK-81 3.6 06:03:36 10° W 06:07:43 82° N 06:10:55 16° E
STARLINK-1008 3.7 06:03:55 10° W 06:08:10 82° N 06:11:27 16° E
STARLINK-54 3.6 06:05:26 10° W 06:09:33 80° N 06:12:41 17° E
Cosmos 1844 Rocket 3.1 06:05:16 10° N 06:10:25 38° ENE 06:15:36 10° SE
STARLINK-1024 3.7 06:06:14 10° WNW 06:10:28 76° N 06:13:43 17° E
STARLINK-77 3.6 06:06:53 10° W 06:11:00 81° N 06:14:05 17° E
STARLINK-1046 4.2 06:08:14 10° NW 06:12:14 43° NNE 06:15:07 17° E
STARLINK-25 3.6 06:08:33 10° W 06:12:41 81° N 06:15:41 18° E
STARLINK-71 3.6 06:10:26 10° W 06:14:33 79° N 06:17:29 19° ENE
STARLINK-41 3.8 06:12:11 10° W 06:15:16 43° NNW 06:17:34 16° NE
STARLINK-1035 3.7 06:11:12 10° WNW 06:15:25 77° N 06:18:29 18° E
Cosmos 676 Rocket 4.0 06:10:06 10° SSW 06:15:32 76° ESE 06:20:55 10° NNE
STARLINK-79 3.6 06:11:52 10° W 06:15:59 80° N 06:18:52 19° ENE
STARLINK-1039 4.1 06:13:10 10° NW 06:17:12 45° NNE 06:19:55 19° E
STARLINK-78 3.6 06:13:33 10° W 06:17:40 80° N 06:20:29 20° ENE
STARLINK-1025 3.7 06:13:52 10° W 06:18:06 80° N 06:21:01 20° ENE
STARLINK-57 3.6 06:15:19 10° W 06:19:26 78° N 06:22:10 20° ENE
Cosmos 1707 2.8 06:16:23 10° N 06:20:22 87° W 06:24:24 10° S
STARLINK-1032 3.6 06:16:10 10° WNW 06:20:24 78° N 06:23:16 20° E
STARLINK-49 3.6 06:16:50 10° W 06:20:57 79° N 06:23:38 21° ENE
CZ-4 R/B 1.9 06:17:31 10° SSE 06:21:32 40° E 06:25:25 10° NNE
Cosmos 407 Rocket 4.2 06:16:15 10° SSW 06:21:35 59° WNW 06:26:49 10° N
STARLINK-1010 3.8 06:17:25 10° W 06:21:45 76° N 06:24:36 21° ENE
STARLINK-1045 4.0 06:18:05 10° NW 06:22:09 47° NNE 06:24:41 21° E
CZ-2D R/B 4.0 06:18:54 10° SSE 06:22:29 31° E 06:26:02 10° NNE
STARLINK-27 3.6 06:18:29 10° W 06:22:36 78° N 06:25:13 22° ENE
STARLINK-1017 3.7 06:18:51 10° W 06:23:05 79° N 06:25:48 22° ENE
Helios 1A Rocket 3.7 06:18:58 10° S 06:23:08 57° WSW 06:27:17 10° NNW
Cosmos 1867 3.7 06:17:59 10° NW 06:23:24 76° SW 06:28:52 10° SE
STARLINK-74 3.6 06:20:08 10° W 06:24:15 78° N 06:26:48 22° ENE
Lacrosse 5 rocket 1.5 06:20:05 10° WSW 06:24:24 64° SSE 06:26:54 22° E
Cosmos 2082 Rocket 3.2 06:19:21 10° SSW 06:24:24 31° SE 06:27:36 18° E
STARLINK-1011 3.6 06:21:09 10° WNW 06:25:23 80° N 06:28:04 22° E
SAR-Lupe-2 3.8 06:22:51 13° NE 06:25:52 48° ESE 06:29:25 10° S
STARLINK-39 3.6 06:21:48 10° W 06:25:55 77° N 06:28:24 23° ENE
STARLINK-1050 4.0 06:23:04 10° NW 06:27:09 50° NNE 06:29:32 23° E
USA 215 4.5 06:25:25 17° ENE 06:27:25 20° NE 06:32:00 10° N
YAOGAN 1 3.1 06:23:20 10° SSE 06:27:29 37° E 06:31:33 10° NNE
STARLINK-31 3.6 06:23:28 10° W 06:27:35 77° N 06:30:01 24° ENE
COSMOS 2406 3.4 06:22:23 10° SSW 06:28:06 58° SE 06:32:27 17° NE
Okean-O 2.6 06:23:43 10° SSE 06:28:15 66° ENE 06:32:43 10° N
Cosmos 1242 Rocket 2.6 06:24:47 10° N 06:28:25 56° E 06:32:08 10° SSE
H-2A R/B 3.6 06:25:20 10° SE 06:28:23 17° ESE 06:28:23 17° ESE
STARLINK-69 3.6 06:25:17 10° W 06:29:25 75° N 06:31:46 24° ENE
Cosmos 2263 Rocket 3.0 06:24:00 10° NW 06:29:29 52° SW 06:35:01 10° SSE
Cosmos 1536 Rocket 4.1 06:25:46 10° NNW 06:30:07 63° WSW 06:34:33 10° S
STARLINK-1036 3.6 06:26:07 10° W 06:30:21 81° N 06:32:50 24° E
STARLINK-61 3.8 06:26:29 10° W 06:30:27 60° NNW 06:32:49 23° NE
STARLINK-21 3.6 06:26:47 10° W 06:30:54 76° N 06:33:11 25° ENE
Cosmos 44 3.8 06:26:13 10° SW 06:31:28 51° SE 06:34:34 23° ENE
STARLINK-55 4.5 06:29:04 10° W 06:32:00 30° NNW 06:33:59 17° NNE
STARLINK-1055 3.9 06:27:58 10° NW 06:32:04 52° NNE 06:34:16 25° E
Cosmos 1025 Rocket 3.8 06:27:55 10° NNW 06:32:11 57° WSW 06:36:31 10° S
FengYun 1-2 T 4.2 06:26:45 10° SSE 06:32:31 72° ENE 06:38:09 10° N
STARLINK-45 3.6 06:28:39 10° W 06:32:45 74° NNW 06:34:59 26° ENE
Meteor 2-10 4.4 06:27:40 10° SSW 06:32:46 66° W 06:37:49 10° N
Cosmos 1271 Rocket 2.7 06:29:19 10° N 06:33:09 59° E 06:37:05 10° SSE
STARLINK-70 3.6 06:30:13 10° W 06:34:19 74° NNW 06:36:30 27° ENE
Cosmos 1939 Rocket 3.2 06:30:32 10° SSE 06:34:38 45° E 06:38:39 10° N
DNEPR-1 R/B 4.4 06:29:48 10° SW 06:34:51 57° SE 06:38:44 22° ENE
Cosmos 2058 Rocket 3.3 06:30:39 10° S 06:35:01 48° ESE 06:38:14 17° NE
Lacrosse 4 Rocket 2.7 06:32:02 10° NNE 06:34:27 21° NE 06:34:27 21° NE
STARLINK-1044 3.6 06:31:05 10° W 06:35:20 82° N 06:37:36 27° E
SMAP 4.0 06:30:58 10° S 06:35:35 51° WSW 06:40:09 10° NW
STARLINK-76 3.6 06:31:46 10° W 06:35:53 74° N 06:37:59 28° ENE
STARLINK-1022 3.8 06:32:57 10° NW 06:37:04 55° NNE 06:39:05 28° E
IRS-1C Rocket 4.3 06:31:51 10° SSE 06:37:14 77° WSW 06:42:33 10° NNW
SL-23 DEB 4.3 06:34:25 10° W 06:37:30 39° NNW 06:39:01 24° NE
STARLINK-23 3.6 06:33:25 10° W 06:37:32 73° NNW 06:39:34 28° ENE
STARLINK-1048 3.7 06:33:48 10° W 06:38:02 74° NNW 06:40:09 28° ENE
Meteor 2-21 4.4 06:32:07 10° N 06:38:19 74° E 06:44:38 10° SSE
Cosmos 1741 Rocket 4.2 06:33:24 10° SSW 06:38:37 52° ESE 06:41:49 22° NE
STARLINK-32 3.6 06:35:04 10° W 06:39:11 73° NNW 06:41:09 29° ENE
Cosmos 1674 2.9 06:36:16 10° NNE 06:39:54 46° E 06:43:37 10° SSE
Envisat 3.6 06:35:09 10° S 06:40:17 63° WSW 06:45:21 10° NNW
STARLINK-1047 3.6 06:36:04 10° W 06:40:19 82° N 06:42:24 29° E
STARLINK-58 3.8 06:37:15 10° W 06:40:32 46° NNW 06:41:55 28° NE
STARLINK-40 3.6 06:36:43 10° W 06:40:50 72° NNW 06:42:44 30° ENE
STARLINK-1037 3.6 06:37:41 10° W 06:41:56 83° N 06:43:57 30° E
STARLINK-1042 3.8 06:37:53 10° WNW 06:42:01 57° NNE 06:43:51 30° E
Cosmos 1340 Rocket 2.8 06:38:15 10° S 06:42:21 65° ESE 06:45:23 18° NNE
STARLINK-44 3.6 06:38:22 10° W 06:42:29 72° NNW 06:44:20 31° ENE
Cosmos 1607 4.0 06:36:25 10° SW 06:42:43 65° SE 06:46:32 24° ENE
Cosmos 1954 Rocket 4.3 06:37:23 10° SSW 06:42:47 74° WNW 06:48:08 10° NNE
Meteor 2-21 Rocket 4.4 06:36:42 10° N 06:42:49 65° E 06:49:04 10° SSE
STARLINK-1049 3.7 06:38:46 10° W 06:42:59 73° NNW 06:44:56 31° ENE
USA 81 4.1 06:38:40 10° N 06:43:55 62° E 06:49:14 10° SSE
STARLINK-37 3.7 06:40:09 10° W 06:44:15 69° NNW 06:46:02 32° ENE
STARLINK-36 3.6 06:41:40 10° W 06:45:46 70° NNW 06:47:29 33° ENE
STARLINK-1056 3.8 06:42:50 10° WNW 06:47:00 59° NNE 06:48:38 33° E
STARLINK-68 3.7 06:43:31 10° W 06:47:37 68° NNW 06:49:17 34° ENE
STARLINK-1051 3.7 06:43:47 10° W 06:48:00 71° NNW 06:49:44 34° ENE
Cosmos 1833 Rocket 3.0 06:42:38 10° SSW 06:48:14 52° SE 06:51:05 27° ENE
CENTAUR R/B 3.6 06:41:50 10° W 06:48:56 46° SSW 06:55:01 10° SE
STARLINK-63 3.7 06:45:05 10° W 06:49:12 68° NNW 06:50:47 35° ENE
CZ-2C R/B 2.9 06:44:38 10° N 06:50:04 73° WNW 06:55:43 10° SSW
STARLINK-1059 3.6 06:46:03 10° W 06:50:18 83° N 06:51:59 36° E
STARLINK-35 3.7 06:46:38 10° W 06:50:44 68° NNW 06:52:16 36° ENE
STARLINK-34 4.0 06:48:23 10° W 06:51:40 41° NNW 06:52:43 31° NNE
STARLINK-1023 3.8 06:47:28 10° W 06:51:44 68° NNW 06:53:24 35° ENE
STARLINK-1054 3.7 06:47:47 10° WNW 06:51:57 61° NNE 06:53:24 37° E
STARLINK-51 3.7 06:48:19 10° W 06:52:24 67° NNW 06:53:52 37° NE
STARLINK-62 4.0 06:49:34 10° W 06:52:51 41° NNW 06:53:51 31° NNE
Cosmos 1626 4.5 06:56:05 12° SE 06:56:05 12° SE 06:56:31 10° SSE
STARLINK-30 3.7 06:49:56 10° W 06:54:02 67° NNW 06:55:25 38° NE
STARLINK-1057 3.6 06:51:01 10° W 06:55:15 84° N 06:56:45 39° E
STARLINK-72 3.7 06:51:37 10° W 06:55:42 66° NNW 06:57:03 39° NE
Cosmos 1371 Rocket 4.0 06:50:59 10° NNW 06:56:13 85° WSW 07:01:31 10° SSE
KORONAS-FOTON 3.7 06:52:57 10° N 06:56:46 63° E 07:00:39 10° SSE
STARLINK-1062 3.7 06:52:44 10° WNW 06:56:54 63° NNE 06:58:11 41° E
STARLINK-50 3.7 06:53:16 10° W 06:57:21 65° NNW 06:58:38 40° NE
STARLINK-1028 3.8 06:53:42 10° W 06:57:55 67° NNW 06:59:17 40° NE
Cosmos 1726 Rocket 3.7 06:53:43 10° SSW 06:58:09 76° W 07:02:30 10° N
STARLINK-59 3.7 06:55:01 10° W 06:59:06 64° NNW 07:00:19 41° NE
Cosmos 1953 4.4 06:56:06 10° SSW 06:59:42 30° W 07:03:16 10° NNW
STARLINK-1034 3.6 06:55:58 10° W 07:00:13 84° N 07:01:31 44° E
STARLINK-56 3.7 06:56:35 10° W 07:00:39 64° NNW 07:01:49 43° NE
Cosmos 1624 Rocket 4.0 06:55:34 10° NNW 07:00:57 87° WSW 07:06:23 10° SSE
STARLINK-1027 3.6 06:57:28 10° W 07:01:50 84° N 07:03:10 44° E
STARLINK-1053 3.6 06:57:42 10° WNW 07:01:53 66° NNE 07:02:58 46° ENE
STARLINK-73 3.7 06:58:13 10° W 07:02:18 63° NNW 07:03:24 44° NE
STARLINK-1021 3.8 06:58:40 10° W 07:02:52 65° NNW 07:04:03 43° NE
STARLINK-38 3.8 06:59:53 10° W 07:03:57 62° NNW 07:04:59 45° NE
USA 267 3.3 07:00:17 28° ENE 07:04:05 86° SSE 07:10:46 10° WSW
STARLINK-1068 3.6 07:00:57 10° W 07:05:12 84° N 07:06:18 49° E
STARLINK-65 3.8 07:01:31 10° W 07:05:36 62° NNW 07:06:34 46° NE
Cosmos 1844 3.7 07:00:10 10° NNW 07:05:59 74° ENE 07:11:50 10° SE
STARLINK-1061 3.6 07:02:40 10° WNW 07:06:52 68° NNE 07:07:45 51° ENE
ARGOS Delta rocket 4.0 07:03:00 10° SSE 07:07:20 43° E 07:07:38 43° ENE
STARLINK-53 3.8 07:03:17 10° W 07:07:20 60° NNW 07:08:16 46° NNE
Cosmos 1726 4.1 07:04:14 10° SSW 07:07:36 30° W 07:10:55 10° NNW
Mayak 0.7 07:08:33 17° SE 07:08:33 17° SE 07:10:33 10° SSE
STARLINK-1019 3.8 07:03:40 10° W 07:07:51 63° NNW 07:08:50 46° NE
Cosmos 1455 4.5 07:05:34 10° SSE 07:06:25 13° SE 07:06:25 13° SE
CSL-04 Rocket 3.7 07:02:42 10° SSE 07:08:19 64° ENE 07:13:46 10° N
Cosmos 2181 Rocket 4.2 07:02:14 10° S 07:08:38 53° ESE 07:11:38 31° NE
STARLINK-1007 3.9 07:07:13 10° W 07:11:27 61° NNW 07:12:21 48° NNE
STARLINK-1067 3.6 07:07:37 10° WNW 07:11:49 70° NNE 07:12:31 56° ENE
STARLINK-1012 3.8 07:08:04 10° W 07:12:12 60° NNW 07:13:00 49° NNE
STARLINK-1014 3.7 07:09:10 10° W 07:13:08 60° NNW 07:13:44 52° NNE
STARLINK-1060 3.6 07:10:56 10° W 07:15:10 83° N 07:15:53 61° ENE
Cosmos 1812 Rocket 4.2 07:12:09 10° S 07:16:18 40° ESE 07:16:18 40° ESE
STARLINK-1058 3.5 07:12:36 10° WNW 07:16:49 71° NNE 07:17:19 63° ENE
STARLINK-1031 3.5 07:14:34 10° W 07:18:51 82° N 07:19:26 65° ENE
STARLINK-1030 3.5 07:15:53 10° W 07:20:07 83° N 07:20:38 68° ENE
Nadezhda 1 Rocket 4.4 07:14:22 10° SSW 07:20:37 65° W 07:26:54 10° N
STARLINK-24 3.9 07:16:53 10° W 07:20:53 53° NNW 07:21:18 51° N
STARLINK-1043 3.5 07:17:33 10° WNW 07:21:46 73° NNE 07:22:05 69° NE
STARLINK-1026 3.9 07:18:37 10° W 07:22:46 56° NNW 07:23:12 53° N
NOAA 11 4.4 07:17:25 10° SSE 07:22:57 75° WSW 07:28:25 10° NNW
STARLINK-1065 3.5 07:19:10 10° WNW 07:23:23 74° N 07:23:38 71° NE
STARLINK-1029 4.3 07:20:34 10° W 07:23:05 31° NW 07:23:05 31° NW
Ariane Rocket 3.6 07:18:53 10° SSE 07:22:51 38° ESE 07:22:51 38° ESE
STARLINK-1020 3.5 07:20:54 10° W 07:25:08 82° N 07:25:27 75° NE
Cosmos 1745 Rocket 4.0 07:19:47 10° NNW 07:25:58 82° W 07:32:15 10° S
Cosmos 1420 Rocket 3.8 07:21:04 10° NNW 07:26:17 80° ENE 07:31:36 10° SSE
STARLINK-1013 3.9 07:23:35 10° W 07:27:43 54° NNW 07:27:58 53° N
Cosmos 1850 Rocket 4.2 07:22:20 10° SSW 07:27:44 74° WNW 07:30:10 33° N
Meteor 2-5 Rocket 3.7 07:22:14 10° N 07:27:52 89° E 07:33:41 10° SSE
Genesis I 4.3 07:24:31 10° SW 07:28:05 34° SSE 07:28:05 34° SSE
Meteor 1-24 Rocket 3.5 07:23:13 10° N 07:28:38 72° E 07:34:17 10° SSE
Cosmos 1375 Rocket 4.4 07:23:38 10° NW 07:30:03 80° NE 07:36:27 10° SE
STARLINK-1052 3.5 07:25:51 10° W 07:30:06 81° N 07:30:13 80° NNE
Cosmos 1892 Rocket 3.7 07:26:34 10° NNW 07:31:03 74° WSW 07:35:33 10° S
Cosmos 2056 Rocket 4.1 07:26:20 10° NW 07:31:29 57° WSW 07:36:47 10° SSE
Cosmos 1300 2.6 07:27:48 10° SSW 07:31:39 85° SSW 07:31:39 85° SSW
STARLINK-1063 3.6 07:27:31 10° WNW 07:31:40 76° N 07:31:40 76° N
STARLINK-1009 4.0 07:28:34 10° W 07:32:41 51° NNW 07:32:45 51° NNW
STARLINK-1064 3.6 07:32:29 10° WNW 07:36:27 73° NW 07:36:27 73° NW
Lacrosse 5 3.8 07:32:48 10° NNW 07:33:57 16° N 07:33:57 16° N
STARLINK-1015 4.2 07:33:33 10° W 07:37:32 49° NNW 07:37:32 49° NNW
ATLAS 3B R/B 3.8 07:30:43 10° W 07:37:50 45° SSW 07:44:34 11° SE
CZ-2C R/B 3.4 07:32:26 10° SSE 07:38:00 50° E 07:38:00 50° E
STARLINK-1033 3.7 07:35:48 10° W 07:39:46 74° NW 07:39:46 74° NW
STARLINK-1041 3.8 07:37:26 10° WNW 07:41:12 68° NW 07:41:12 68° NW
ARGOS 3.9 07:36:23 10° SSE 07:40:14 38° ESE 07:40:14 38° ESE
STARLINK-1016 4.3 07:38:33 10° W 07:42:20 46° NW 07:42:20 46° NW
Meteor 2-10 Rocket 4.0 07:39:46 10° S 07:44:23 44° SE 07:44:23 44° SE
STARLINK-1038 4.0 07:42:24 10° W 07:45:59 62° WNW 07:45:59 62° WNW
STARLINK-81 4.5 07:42:45 10° W 07:46:08 42° NW 07:46:08 42° NW
STARLINK-1008 4.5 07:43:32 10° W 07:47:06 43° NW 07:47:06 43° NW
STARLINK-1024 4.0 07:45:47 10° W 07:49:21 60° WNW 07:49:21 60° WNW
STARLINK-1046 4.1 07:47:23 10° W 07:50:46 56° WNW 07:50:46 56° WNW
Okean 1-7 Rocket 4.3 07:48:47 10° NNW 07:53:13 54° WSW 07:57:46 10° S
Cosmos 1844 Rocket 3.5 07:48:45 10° NW 07:54:13 51° SW 07:59:44 10° SSE
STARLINK-1035 4.2 07:50:46 10° W 07:54:08 54° W 07:54:08 54° W
CZ-4 R/B 3.5 07:52:45 10° S 07:56:26 29° WSW 08:00:02 10° WNW
STARLINK-1039 4.4 07:52:22 10° W 07:55:34 50° WNW 07:55:34 50° WNW
STARLINK-1032 4.4 07:55:44 10° W 07:58:54 48° W 07:58:54 48° W
YAOGAN 1 4.3 07:59:33 10° S 08:03:32 33° WSW 08:07:29 10° NW
Lacrosse 5 rocket 2.5 07:59:30 10° WSW 08:02:32 39° W 08:02:32 39° W
IRIDIUM 104 4.3 08:03:29 69° NNW 08:04:07 82° W 08:09:29 10° S
Meteor 2-1 Rocket 4.1 08:00:36 10° SSW 08:06:14 83° WNW 08:06:47 73° NNW
Cosmos 1452 Rocket 3.7 08:02:10 10° NW 08:07:30 71° WSW 08:12:52 10° SSE
SJ-11-01 4.5 08:03:55 10° SSE 08:08:33 71° WSW 08:08:33 71° WSW
Cosmos 2082 Rocket 2.1 08:03:21 10° SW 08:09:06 77° WNW 08:09:27 74° NNW
H-2A R/B 2.1 08:03:36 10° SSE 08:08:59 83° ESE 08:08:59 83° ESE
USA 215 3.6 08:12:50 48° N 08:12:50 48° N 08:17:56 10° NW
Cosmos 44 4.2 08:07:43 10° SW 08:12:44 44° WNW 08:13:00 43° NW
Lacrosse 4 Rocket 3.5 08:09:34 10° NW 08:10:52 19° WNW 08:10:52 19° WNW
Cosmos 968 Rocket 4.3 08:09:21 10° SSW 08:13:17 40° SSE 08:13:17 40° SSE
Gbstr 26 Del rocket 4.2 08:07:41 10° WNW 08:14:39 72° NNE 08:15:34 66° ENE
Exosat Rocket 4.0 08:12:51 10° SW 08:17:54 59° WNW 08:18:26 57° NW
Cosmos 1709 Rocket 4.4 08:17:02 10° NNW 08:23:07 59° WSW 08:29:21 10° S
Cosmos 1833 Rocket 3.7 08:26:50 10° SW 08:32:04 38° WNW 08:32:48 36° NW
Cosmos 2074 Rocket 4.2 08:38:38 64° SSE 08:38:38 64° SSE 08:43:58 10° SSE
Cosmos 724 4.5 08:33:04 10° SW 08:38:50 72° W 08:38:50 72° W
CENTAUR R/B 3.6 08:34:44 10° WSW 08:40:56 35° S 08:42:31 31° SSE
Mayak 0.8 08:45:08 26° SSW 08:45:08 26° SSW 08:47:03 10° SSW
Cosmos 44 Rocket 4.4 08:40:21 10° SW 08:43:55 45° SW 08:43:55 45° SW
USA 267 3.7 08:47:38 48° NW 08:47:38 48° NW 08:53:52 10° WSW
Cosmos 2278 Rocket 3.9 08:51:45 23° SSE 08:51:45 23° SSE 08:53:52 10° SSE
Ariane Rocket 4.3 08:57:58 10° S 09:02:46 38° WSW 09:03:02 38° WSW
ARGOS 4.4 09:16:51 10° S 09:21:44 38° WSW 09:21:44 38° WSW
ATLAS 3B R/B 3.9 09:23:17 10° WSW 09:30:13 39° S 09:31:47 35° SE
Resurs 01 Rocket 4.4 09:33:18 10° S 09:33:53 13° S 09:33:53 13° S
USA 238 DEB 4.4 09:35:04 10° SW 09:40:57 51° S 09:40:57 51° S
USA 238 4.4 09:35:12 10° SW 09:41:02 51° S 09:41:02 51° S
H-2A R/B 4.3 09:43:47 10° S 09:47:58 23° SW 09:49:35 20° WSW
Cosmos 2297 Rocket 4.2 09:58:06 10° SSW 10:01:22 22° SSE 10:01:22 22° SSE
Cosmos 2227 Rocket 4.3 10:23:39 10° SSW 10:26:30 23° S 10:26:30 23° S
CENTAUR R/B 4.1 10:26:28 10° SW 10:29:40 28° SW 10:29:40 28° SW
Cosmos 2278 Rocket 4.3 10:33:33 23° SSW 10:33:33 23° SSW 10:37:47 10° SSE
Resurs 1-4 Rocket 4.5 11:06:23 19° S 11:06:23 19° S 11:07:59 10° S
Cosmos 1943 Rocket 4.5 11:12:44 19° SSE 11:12:44 19° SSE 11:14:22 10° SSE
CZ-2D R/B 4.5 11:13:45 20° S 11:13:45 20° S 11:15:23 10° S
ATLAS 3B R/B 4.0 11:14:50 10° SW 11:19:00 35° SW 11:19:00 35° SW
Cosmos 2263 Rocket 4.4 11:43:00 10° SSW 11:46:15 20° SSE 11:46:15 20° SSE
